Weather History for York, PA

Change the Weather History Date:

Tuesday, December 10, 2013

  Actual Average Record
Temperature  
Mean Temperature 28 °F -  
Max Temperature 36 °F 0 °F 59 °F (2008)
Min Temperature 19 °F - 3 °F (2005)
Degree Days  
Heating Degree Days 38    
Moisture  
Dew Point 27 °F    
Average Humidity 83    
Maximum Humidity 92    
Minimum Humidity 48    
Precipitation  
Precipitation 0.38 in - - ()
Sea Level Pressure  
Sea Level Pressure 30.03 in    
Wind  
Wind Speed 4 mph (WNW)    
Max Wind Speed 12 mph    
Max Gust Speed -    
Visibility 4 miles    
Events Fog , Snow    
Averages and records for this station are not official NWS values.
T = Trace of Precipitation, MM = Missing Value Source: NWS Daily Summary

Daily Weather History Graph

Daily Weather History Graph

Search for Another Location

Airport:

Trip Planner

Search our weather history database for the weather conditions in past years. The results will help you decide how hot, cold, wet, or windy it might be!

Date:

Astronomy

Dec. 10, 2013 Rise Set
Actual Time 7:18 AM EST 4:42 PM EST
Civil Twilight 6:47 AM EST 5:12 PM EST
Nautical Twilight 6:14 AM EST 5:46 PM EST
Astronomical Twilight 5:41 AM EST 6:19 PM EST
Moon 12:42 PM EST (12/10) 12:34 AM EST (12/10)
Length of Visible Light 10h 24m
Length of Day
9h 24m
First Quarter, 61% of the Moon is Illuminated
Dec 10
First Quarter
Dec 17
Full
Dec 25
Last Quarter
Jan 1
New
Jan 7
First Quarter

Hourly Weather History & Observations

Time (EST) Temp. Windchill Dew Point Humidity Pressure Visibility Wind Dir Wind Speed Gust Speed Precip Events Conditions
12:53 AM 32.0 °F 28.7 °F 30.0 °F 92% 30.05 in 7.0 mi West 3.5 mph - N/A   Clear
1:53 AM 33.1 °F - 30.0 °F 89% 30.03 in 7.0 mi Calm Calm - N/A   Clear
2:53 AM 33.1 °F - 30.9 °F 92% 30.06 in 7.0 mi Calm Calm - N/A   Clear
3:53 AM 34.0 °F - 30.0 °F 85% 30.07 in 10.0 mi Calm Calm - N/A   Clear
4:53 AM 34.0 °F 29.8 °F 30.0 °F 85% 29.99 in 9.0 mi NW 4.6 mph - N/A   Overcast
5:53 AM 35.1 °F 31.0 °F 30.0 °F 82% 30.07 in 5.0 mi Variable 4.6 mph - N/A   Haze
5:56 AM 35.1 °F 29.3 °F 30.0 °F 82% 30.05 in 1.8 mi Variable 6.9 mph - 0.00 in Snow Light Snow
6:00 AM 35.1 °F 26.9 °F 30.0 °F 82% 30.05 in 0.8 mi WNW 11.5 mph - 0.01 in Snow Light Snow
6:12 AM 34.0 °F 28.0 °F 32.0 °F 92% 30.04 in 0.2 mi WNW 6.9 mph - 0.03 in Fog , Snow Heavy Snow
6:19 AM 34.0 °F 27.2 °F 32.0 °F 92% 30.03 in 0.2 mi WNW 8.1 mph - 0.04 in Fog , Snow Heavy Snow
6:28 AM 34.0 °F 28.0 °F 32.0 °F 92% 30.02 in 0.2 mi WNW 6.9 mph - 0.06 in Fog , Snow Heavy Snow
6:42 AM 34.0 °F 29.8 °F 32.0 °F 92% 30.03 in 0.5 mi WNW 4.6 mph - 0.10 in Fog , Snow Snow
6:53 AM 34.0 °F 29.8 °F 30.9 °F 89% 30.05 in 0.5 mi West 4.6 mph - 0.13 in Fog , Snow Snow
7:08 AM 33.1 °F 28.7 °F 30.9 °F 92% 30.03 in 0.5 mi WNW 4.6 mph - 0.03 in Fog , Snow Snow
7:41 AM 33.1 °F - 30.9 °F 92% 30.01 in 0.5 mi Calm Calm - 0.10 in Fog , Snow Snow
7:49 AM 33.8 °F 30.8 °F 30.2 °F 87% 30.02 in 0.2 mi SW 3.5 mph - 0.13 in Fog , Snow Snow
7:53 AM 33.1 °F 30.0 °F 30.9 °F 92% 30.04 in 0.5 mi SW 3.5 mph - 0.14 in Fog , Snow Snow
8:07 AM 33.1 °F 28.7 °F 30.0 °F 89% 30.02 in 0.5 mi West 4.6 mph - 0.02 in Fog , Snow Snow
8:12 AM 32.0 °F 27.5 °F 30.0 °F 92% 30.02 in 0.5 mi West 4.6 mph - 0.02 in Fog , Snow Snow
8:53 AM 32.0 °F - 30.0 °F 92% 30.03 in 0.5 mi Calm Calm - 0.05 in Fog , Snow Snow
9:38 AM 33.1 °F 30.0 °F 30.0 °F 89% 29.98 in 0.8 mi WNW 3.5 mph - 0.03 in Snow Light Snow
9:44 AM 33.1 °F - 30.0 °F 89% 29.98 in 1.0 mi Calm Calm - 0.03 in Snow Light Snow
9:53 AM 33.1 °F 30.0 °F 30.0 °F 89% 30.01 in 0.8 mi WNW 3.5 mph - 0.04 in Snow Light Snow
10:14 AM 33.1 °F 28.7 °F 30.0 °F 89% 29.99 in 1.2 mi WNW 4.6 mph - 0.01 in Snow Light Snow
10:25 AM 33.1 °F 30.0 °F 30.0 °F 89% 29.98 in 1.2 mi West 3.5 mph - 0.01 in Snow Light Snow
10:32 AM 33.1 °F - 30.0 °F 89% 29.99 in 2.0 mi Calm Calm - 0.01 in Snow Light Snow
10:38 AM 33.1 °F 27.7 °F 30.0 °F 89% 30.00 in 3.0 mi WNW 5.8 mph - 0.01 in   Overcast
10:53 AM 33.1 °F 28.7 °F 30.0 °F 89% 30.02 in 3.0 mi West 4.6 mph - 0.01 in Snow Light Snow
11:16 AM 33.1 °F 27.7 °F 28.9 °F 85% 29.99 in 2.0 mi WNW 5.8 mph - 0.00 in Snow Light Snow
11:24 AM 33.1 °F 27.7 °F 30.0 °F 89% 29.98 in 1.2 mi WNW 5.8 mph - 0.00 in Snow Light Snow
11:36 AM 33.1 °F 28.7 °F 30.0 °F 89% 29.98 in 1.0 mi WNW 4.6 mph - 0.01 in Snow Light Snow
11:39 AM 33.1 °F 27.7 °F 30.0 °F 89% 29.98 in 0.8 mi NW 5.8 mph - 0.01 in Snow Light Snow
11:53 AM 32.0 °F 24.8 °F 28.0 °F 85% 30.00 in 1.0 mi WNW 8.1 mph - 0.01 in Snow Light Snow
11:58 AM 33.1 °F 27.7 °F 28.0 °F 82% 29.98 in 2.0 mi WNW 5.8 mph - 0.00 in Snow Light Snow
12:00 PM 32.0 °F 27.5 °F 28.0 °F 85% 29.98 in 3.0 mi WNW 4.6 mph - 0.00 in Snow Light Snow
12:08 PM 32.0 °F 25.6 °F 28.0 °F 85% 29.98 in 5.0 mi WNW 6.9 mph - 0.00 in   Overcast
12:28 PM 33.1 °F 26.9 °F 28.0 °F 82% 29.98 in 6.0 mi WNW 6.9 mph - 0.00 in   Haze
12:53 PM 33.1 °F 28.7 °F 28.0 °F 82% 30.01 in 5.0 mi West 4.6 mph - 0.00 in   Overcast
1:24 PM 33.1 °F 28.7 °F 28.9 °F 85% 29.97 in 6.0 mi West 4.6 mph - 0.00 in   Overcast
1:53 PM 34.0 °F - 30.0 °F 85% 29.99 in 5.0 mi Calm Calm - 0.00 in   Mostly Cloudy
2:53 PM 36.0 °F 33.3 °F 28.9 °F 76% 30.01 in 10.0 mi WNW 3.5 mph - N/A   Overcast
3:53 PM 33.1 °F 26.1 °F 24.1 °F 70% 30.04 in 10.0 mi WNW 8.1 mph - N/A   Clear
4:53 PM 33.1 °F 24.4 °F 15.1 °F 48% 30.06 in 10.0 mi WNW 11.5 mph - N/A   Clear
5:53 PM 19.9 °F - 15.1 °F 81% 30.09 in 10.0 mi Calm Calm - N/A   Clear
6:53 PM 28.0 °F 22.8 °F 15.1 °F 58% 30.10 in 10.0 mi West 4.6 mph - N/A   Clear
7:53 PM 28.9 °F 21.9 °F 14.0 °F 54% 30.10 in 10.0 mi SW 6.9 mph - N/A   Clear
8:53 PM 28.9 °F 20.4 °F 14.0 °F 54% 30.13 in 10.0 mi WSW 9.2 mph - N/A   Clear
9:53 PM 28.9 °F 19.2 °F 14.0 °F 54% 30.15 in 10.0 mi West 11.5 mph - N/A   Clear
10:53 PM 27.0 °F 21.6 °F 12.9 °F 56% 30.17 in 10.0 mi West 4.6 mph - N/A   Clear
11:53 PM 23.0 °F - 10.9 °F 60% 30.21 in 10.0 mi Calm Calm - N/A   Clear